LBWN

Varna Airport

Airport
ICAO code
LBWN
IATA Code
VAR
Summary
ICAO Region
EUR
ICAO Territory
Location

Aksakovo, Varna Province

Serving
Varna
Elevation
230 ft
Coordinates
43° 13' 55" N , 27° 49' 30" E
KCC
Metar
LBWN 151630Z AUTO 08004KT 350V150 9999 NSC 24/16 Q1010 NOSIG

Varna Airport is the airport of Varna, the historical maritime capital of Bulgaria

Climatology

Temperate oceanic climate (Köppen climate classification Cfb)

Runways

Designator Length Width Surface Rops
9/27 2500 55 CON Yes/Yes

Airport map

Aerial View

SKYbrary Partners:

Safety knowledge contributed by: